User: anonymous   Login
Location: Dyersburg
(36.0438°N, 89.3789°W)
Time: 12:14:15
(UTC+00:00)
Language:

Vanguard 1 Rocket - Orbit

View from above orbital plane
View from above orbital plane
View from above satellite
View from above satellite

Ground track
Ground track

The orbit data is extracted from the following two-line orbital elements,

1    16U 58002A   20058.84074618 -.00000133 +00000-0 -16915-3 0  9999
2    16 034.2620 113.9411 2027989 131.4304 247.9150 10.48710452447228
Epoch (UTC): 27 February 2020 20:10:40
Eccentricity: 0.2027989
inclination: 34.2620°
perigee height: 650 km
apogee height: 4226 km
right ascension of ascending node: 113.9411°
argument of perigee: 131.4304°
revolutions per day: 10.48710452
mean anomaly at epoch: 247.9150°
orbit number at epoch: 44722

The dashed part of the orbit path shows where the satellite is in the earth's shadow,  

DLR